Private Wetterstation Sandau
Wetterdaten: Samstag, 01.09.2012
Datum Zeit Temp. A. Feuchte A. Luftdruck Regen Wind Richtung Richtung Taupunkt Windchill
01.09.2012 00:01 13,4 C 88 % 1021,2 hPa 0,0 l/m 2,5 km/h (1 Bft) W 270 11,5 C 13,4 C
01.09.2012 00:06 13,4 C 88 % 1021,3 hPa 0,0 l/m 2,5 km/h (1 Bft) W 270 11,5 C 13,4 C
01.09.2012 00:11 13,4 C 88 % 1021,4 hPa 0,0 l/m 2,5 km/h (1 Bft) W 270 11,5 C 13,4 C
01.09.2012 00:16 13,3 C 88 % 1021,5 hPa 0,0 l/m 3,6 km/h (1 Bft) W 270 11,4 C 13,3 C
01.09.2012 00:21 13,3 C 88 % 1021,6 hPa 0,0 l/m 3,6 km/h (1 Bft) N-NW 337 11,4 C 13,3 C
01.09.2012 00:26 13,3 C 88 % 1021,5 hPa 0,0 l/m 0,0 km/h (0 Bft) NW 315 11,4 C 13,3 C
01.09.2012 00:31 13,2 C 88 % 1021,4 hPa 0,0 l/m 4,0 km/h (1 Bft) NW 315 11,3 C 13,2 C
01.09.2012 00:36 13,2 C 88 % 1021,4 hPa 0,0 l/m 4,7 km/h (1 Bft) NW 315 11,3 C 13,2 C
01.09.2012 00:41 13,1 C 88 % 1021,4 hPa 0,0 l/m 1,4 km/h (1 Bft) W-NW 292 11,2 C 13,1 C
01.09.2012 00:46 13,1 C 88 % 1021,3 hPa 0,0 l/m 0,0 km/h (0 Bft) N-NW 337 11,2 C 13,1 C
01.09.2012 00:51 13,0 C 88 % 1021,4 hPa 0,0 l/m 2,5 km/h (1 Bft) NW 315 11,1 C 13,0 C
01.09.2012 00:56 12,9 C 88 % 1021,6 hPa 0,0 l/m 4,0 km/h (1 Bft) NW 315 11,0 C 12,9 C
01.09.2012 01:01 12,9 C 88 % 1021,5 hPa 0,0 l/m 4,3 km/h (1 Bft) NW 315 11,0 C 12,9 C
01.09.2012 01:06 12,8 C 88 % 1021,6 hPa 0,0 l/m 3,6 km/h (1 Bft) NW 315 10,9 C 12,8 C
01.09.2012 01:11 12,7 C 88 % 1021,6 hPa 0,0 l/m 6,5 km/h (2 Bft) N 360 10,8 C 12,7 C
01.09.2012 01:16 12,6 C 88 % 1021,5 hPa 0,0 l/m 5,4 km/h (1 Bft) N-NW 337 10,7 C 12,6 C
01.09.2012 01:21 12,6 C 88 % 1021,6 hPa 0,0 l/m 4,7 km/h (1 Bft) N-NW 337 10,7 C 12,6 C
01.09.2012 01:26 12,5 C 88 % 1021,6 hPa 0,0 l/m 5,8 km/h (2 Bft) N-NW 337 10,6 C 12,5 C
01.09.2012 01:31 12,4 C 88 % 1021,6 hPa 0,0 l/m 1,4 km/h (1 Bft) NW 315 10,5 C 12,4 C
01.09.2012 01:36 12,4 C 88 % 1021,7 hPa 0,0 l/m 0,0 km/h (0 Bft) N-NW 337 10,5 C 12,4 C
01.09.2012 01:41 12,4 C 88 % 1021,6 hPa 0,0 l/m 3,2 km/h (1 Bft) NW 315 10,5 C 12,4 C
01.09.2012 01:46 12,3 C 88 % 1021,9 hPa 0,0 l/m 5,0 km/h (1 Bft) NW 315 10,4 C 12,3 C
01.09.2012 01:51 12,3 C 88 % 1021,9 hPa 0,0 l/m 5,8 km/h (2 Bft) NW 315 10,4 C 12,3 C
01.09.2012 01:56 12,2 C 88 % 1021,7 hPa 0,0 l/m 6,1 km/h (2 Bft) N-NW 337 10,3 C 12,2 C
01.09.2012 02:01 12,1 C 88 % 1021,8 hPa 0,0 l/m 3,6 km/h (1 Bft) NW 315 10,2 C 12,1 C
01.09.2012 02:06 12,1 C 88 % 1021,9 hPa 0,0 l/m 0,0 km/h (0 Bft) N-NW 337 10,2 C 12,1 C
01.09.2012 02:11 11,9 C 88 % 1021,8 hPa 0,0 l/m 2,5 km/h (1 Bft) N-NW 337 10,0 C 11,9 C
01.09.2012 02:16 11,9 C 88 % 1021,8 hPa 0,0 l/m 2,5 km/h (1 Bft) NW 315 10,0 C 11,9 C
01.09.2012 02:21 11,9 C 88 % 1021,8 hPa 0,0 l/m 1,4 km/h (1 Bft) N-NW 337 10,0 C 11,9 C
01.09.2012 02:26 11,8 C 88 % 1021,7 hPa 0,0 l/m 3,6 km/h (1 Bft) W-NW 292 9,9 C 11,8 C
01.09.2012 02:31 11,8 C 88 % 1021,7 hPa 0,0 l/m 4,7 km/h (1 Bft) N-NW 337 9,9 C 11,8 C
01.09.2012 02:36 11,6 C 88 % 1021,8 hPa 0,0 l/m 4,7 km/h (1 Bft) NW 315 9,7 C 11,6 C
01.09.2012 02:41 11,6 C 88 % 1021,9 hPa 0,0 l/m 4,7 km/h (1 Bft) N 360 9,7 C 11,6 C
01.09.2012 02:46 11,6 C 88 % 1022,0 hPa 0,0 l/m 0,0 km/h (0 Bft) N-NW 337 9,7 C 11,6 C
01.09.2012 02:51 11,5 C 88 % 1022,0 hPa 0,0 l/m 3,6 km/h (1 Bft) NW 315 9,6 C 11,5 C
01.09.2012 02:56 11,4 C 88 % 1022,1 hPa 0,0 l/m 2,9 km/h (1 Bft) NW 315 9,5 C 11,4 C
01.09.2012 03:01 11,4 C 88 % 1022,1 hPa 0,0 l/m 5,0 km/h (1 Bft) NW 315 9,5 C 11,4 C
01.09.2012 03:06 11,3 C 88 % 1022,2 hPa 0,0 l/m 3,6 km/h (1 Bft) NW 315 9,4 C 11,3 C
01.09.2012 03:11 11,3 C 88 % 1022,3 hPa 0,0 l/m 0,0 km/h (0 Bft) N 360 9,4 C 11,3 C
01.09.2012 03:16 11,3 C 88 % 1022,3 hPa 0,0 l/m 5,8 km/h (2 Bft) NW 315 9,4 C 11,3 C
01.09.2012 03:21 11,3 C 88 % 1022,3 hPa 0,0 l/m 4,7 km/h (1 Bft) NW 315 9,4 C 11,3 C
01.09.2012 03:26 11,3 C 88 % 1022,4 hPa 0,0 l/m 6,8 km/h (2 Bft) NW 315 9,4 C 11,3 C
01.09.2012 03:31 11,2 C 88 % 1022,5 hPa 0,0 l/m 5,8 km/h (2 Bft) NW 315 9,3 C 11,2 C
01.09.2012 03:36 11,2 C 88 % 1022,4 hPa 0,0 l/m 5,4 km/h (1 Bft) NW 315 9,3 C 11,2 C
01.09.2012 03:41 11,2 C 88 % 1022,4 hPa 0,0 l/m 4,0 km/h (1 Bft) W-NW 292 9,3 C 11,2 C
01.09.2012 03:46 11,1 C 88 % 1022,5 hPa 0,0 l/m 5,0 km/h (1 Bft) NW 315 9,2 C 11,1 C
01.09.2012 03:51 11,1 C 88 % 1022,5 hPa 0,0 l/m 3,2 km/h (1 Bft) W-NW 292 9,2 C 11,1 C
01.09.2012 03:56 11,0 C 88 % 1022,5 hPa 0,0 l/m 8,3 km/h (2 Bft) W-NW 292 9,1 C 11,0 C
01.09.2012 04:01 11,0 C 88 % 1022,6 hPa 0,0 l/m 4,3 km/h (1 Bft) NW 315 9,1 C 11,0 C
01.09.2012 04:06 11,0 C 88 % 1022,5 hPa 0,0 l/m 5,0 km/h (1 Bft) W-NW 292 9,1 C 11,0 C
01.09.2012 04:11 10,9 C 88 % 1022,6 hPa 0,0 l/m 6,1 km/h (2 Bft) W-NW 292 9,0 C 10,9 C
01.09.2012 04:16 10,9 C 88 % 1022,6 hPa 0,0 l/m 6,5 km/h (2 Bft) NW 315 9,0 C 10,9 C
01.09.2012 04:21 10,9 C 88 % 1022,7 hPa 0,0 l/m 7,2 km/h (2 Bft) NW 315 9,0 C 10,9 C
01.09.2012 04:26 10,9 C 87 % 1022,9 hPa 0,0 l/m 7,2 km/h (2 Bft) NW 315 8,8 C 10,9 C
01.09.2012 04:31 10,9 C 87 % 1022,9 hPa 0,0 l/m 3,6 km/h (1 Bft) NW 315 8,8 C 10,9 C
01.09.2012 04:36 10,9 C 87 % 1023,0 hPa 0,0 l/m 2,2 km/h (1 Bft) NW 315 8,8 C 10,9 C
01.09.2012 04:41 10,9 C 87 % 1023,1 hPa 0,0 l/m 5,4 km/h (1 Bft) NW 315 8,8 C 10,9 C
01.09.2012 04:46 10,8 C 88 % 1023,2 hPa 0,0 l/m 1,4 km/h (1 Bft) W-NW 292 8,9 C 10,8 C
01.09.2012 04:51 10,8 C 87 % 1023,2 hPa 0,0 l/m 3,2 km/h (1 Bft) W-NW 292 8,7 C 10,8 C
01.09.2012 04:56 10,7 C 88 % 1023,3 hPa 0,0 l/m 6,8 km/h (2 Bft) W-NW 292 8,8 C 10,7 C
01.09.2012 05:01 10,7 C 87 % 1023,3 hPa 0,0 l/m 8,6 km/h (2 Bft) W-NW 292 8,6 C 10,7 C
01.09.2012 05:06 10,6 C 87 % 1023,2 hPa 0,0 l/m 4,0 km/h (1 Bft) W-NW 292 8,5 C 10,6 C
01.09.2012 05:11 10,6 C 88 % 1023,4 hPa 0,0 l/m 3,6 km/h (1 Bft) W 270 8,7 C 10,6 C
01.09.2012 05:16 10,6 C 88 % 1023,5 hPa 0,0 l/m 0,0 km/h (0 Bft) NW 315 8,7 C 10,6 C
01.09.2012 05:21 10,5 C 88 % 1023,3 hPa 0,0 l/m 2,2 km/h (1 Bft) W-NW 292 8,6 C 10,5 C
01.09.2012 05:26 10,5 C 88 % 1023,4 hPa 0,0 l/m 4,0 km/h (1 Bft) W-NW 292 8,6 C 10,5 C
01.09.2012 05:31 10,5 C 88 % 1023,5 hPa 0,0 l/m 5,0 km/h (1 Bft) N-NW 337 8,6 C 10,5 C
01.09.2012 05:36 10,4 C 88 % 1023,5 hPa 0,0 l/m 0,0 km/h (0 Bft) W-NW 292 8,5 C 10,4 C
01.09.2012 05:41 10,4 C 88 % 1023,4 hPa 0,0 l/m 2,2 km/h (1 Bft) W-NW 292 8,5 C 10,4 C
01.09.2012 05:46 10,4 C 88 % 1023,5 hPa 0,0 l/m 0,0 km/h (0 Bft) W-NW 292 8,5 C 10,4 C
01.09.2012 05:51 10,3 C 88 % 1023,5 hPa 0,0 l/m 0,0 km/h (0 Bft) W-NW 292 8,4 C 10,3 C
01.09.2012 05:56 10,3 C 88 % 1023,5 hPa 0,0 l/m 3,2 km/h (1 Bft) W-NW 292 8,4 C 10,3 C
01.09.2012 06:01 10,2 C 88 % 1023,4 hPa 0,0 l/m 4,7 km/h (1 Bft) W-NW 292 8,3 C 10,2 C
01.09.2012 06:06 10,2 C 88 % 1023,4 hPa 0,0 l/m 0,0 km/h (0 Bft) W-NW 292 8,3 C 10,2 C
01.09.2012 06:11 10,2 C 88 % 1023,3 hPa 0,0 l/m 3,2 km/h (1 Bft) W-NW 292 8,3 C 10,2 C
01.09.2012 06:16 10,1 C 88 % 1023,4 hPa 0,0 l/m 0,0 km/h (0 Bft) W 270 8,2 C 10,1 C
01.09.2012 06:21 10,1 C 88 % 1023,4 hPa 0,0 l/m 5,0 km/h (1 Bft) W-SW 247 8,2 C 10,1 C
01.09.2012 06:26 10,1 C 88 % 1023,5 hPa 0,0 l/m 7,6 km/h (2 Bft) W-SW 247 8,2 C 10,1 C
01.09.2012 06:31 10,1 C 88 % 1023,5 hPa 0,0 l/m 0,0 km/h (0 Bft) W 270 8,2 C 10,1 C
01.09.2012 06:36 9,9 C 88 % 1023,6 hPa 0,0 l/m 2,5 km/h (1 Bft) W 270 8,0 C 9,9 C
01.09.2012 06:41 9,9 C 88 % 1023,5 hPa 0,0 l/m 4,0 km/h (1 Bft) W 270 8,0 C 9,9 C
01.09.2012 06:46 9,9 C 88 % 1023,6 hPa 0,0 l/m 3,6 km/h (1 Bft) NW 315 8,0 C 9,9 C
01.09.2012 06:51 9,9 C 89 % 1023,5 hPa 0,0 l/m 0,0 km/h (0 Bft) W-NW 292 8,2 C 9,9 C
01.09.2012 06:56 9,9 C 89 % 1023,6 hPa 0,0 l/m 4,7 km/h (1 Bft) NW 315 8,2 C 9,7 C
01.09.2012 07:01 9,9 C 89 % 1023,6 hPa 0,0 l/m 6,5 km/h (2 Bft) N-NW 337 8,2 C 9,2 C
01.09.2012 07:06 10,1 C 89 % 1023,6 hPa 0,0 l/m 3,2 km/h (1 Bft) W-NW 292 8,4 C 10,1 C
01.09.2012 07:11 10,3 C 89 % 1023,6 hPa 0,0 l/m 1,8 km/h (1 Bft) W-NW 292 8,6 C 10,3 C
01.09.2012 07:16 10,4 C 89 % 1023,6 hPa 0,0 l/m 2,2 km/h (1 Bft) W-NW 292 8,7 C 10,4 C
01.09.2012 07:21 10,8 C 89 % 1023,6 hPa 0,0 l/m 0,0 km/h (0 Bft) W 270 9,1 C 10,8 C
01.09.2012 07:26 11,1 C 89 % 1023,7 hPa 0,0 l/m 2,2 km/h (1 Bft) W-NW 292 9,4 C 11,1 C
01.09.2012 07:31 11,3 C 88 % 1023,7 hPa 0,0 l/m 3,2 km/h (1 Bft) W-NW 292 9,4 C 11,3 C
01.09.2012 07:36 11,4 C 87 % 1023,6 hPa 0,0 l/m 3,2 km/h (1 Bft) W-NW 292 9,3 C 11,4 C
01.09.2012 07:41 11,4 C 86 % 1023,7 hPa 0,0 l/m 4,7 km/h (1 Bft) W 270 9,1 C 11,4 C
01.09.2012 07:46 11,5 C 86 % 1023,7 hPa 0,0 l/m 1,4 km/h (1 Bft) W-SW 247 9,2 C 11,5 C
01.09.2012 07:51 11,6 C 86 % 1023,9 hPa 0,0 l/m 5,0 km/h (1 Bft) W 270 9,3 C 11,6 C
01.09.2012 07:56 11,8 C 86 % 1024,0 hPa 0,0 l/m 6,8 km/h (2 Bft) W 270 9,5 C 11,8 C
01.09.2012 08:01 11,9 C 86 % 1024,0 hPa 0,0 l/m 6,8 km/h (2 Bft) W-SW 247 9,6 C 11,9 C
01.09.2012 08:06 12,1 C 86 % 1024,1 hPa 0,0 l/m 5,8 km/h (2 Bft) W-NW 292 9,8 C 12,1 C
01.09.2012 08:11 12,3 C 86 % 1024,1 hPa 0,0 l/m 7,9 km/h (2 Bft) W 270 10,0 C 12,3 C
01.09.2012 08:16 12,4 C 85 % 1024,2 hPa 0,0 l/m 0,0 km/h (0 Bft) W-SW 247 9,9 C 12,4 C
01.09.2012 08:21 12,6 C 85 % 1024,1 hPa 0,0 l/m 5,4 km/h (1 Bft) W-SW 247 10,1 C 12,6 C
01.09.2012 08:26 12,8 C 84 % 1024,3 hPa 0,0 l/m 2,9 km/h (1 Bft) W 270 10,2 C 12,8 C
01.09.2012 08:31 12,9 C 85 % 1024,3 hPa 0,0 l/m 2,9 km/h (1 Bft) W-NW 292 10,4 C 12,9 C
01.09.2012 08:36 13,1 C 84 % 1024,2 hPa 0,0 l/m 6,8 km/h (2 Bft) W-NW 292 10,5 C 13,1 C
01.09.2012 08:41 13,2 C 84 % 1024,2 hPa 0,0 l/m 2,5 km/h (1 Bft) N-NW 337 10,6 C 13,2 C
01.09.2012 08:46 13,3 C 83 % 1024,3 hPa 0,0 l/m 7,6 km/h (2 Bft) NW 315 10,5 C 13,3 C
01.09.2012 08:51 13,4 C 83 % 1024,4 hPa 0,0 l/m 4,0 km/h (1 Bft) W-NW 292 10,6 C 13,4 C
01.09.2012 08:56 13,6 C 83 % 1024,3 hPa 0,0 l/m 0,0 km/h (0 Bft) NW 315 10,8 C 13,6 C
01.09.2012 09:01 13,8 C 83 % 1024,4 hPa 0,0 l/m 4,0 km/h (1 Bft) W 270 11,0 C 13,8 C
01.09.2012 09:06 14,1 C 83 % 1024,4 hPa 0,0 l/m 13,7 km/h (3 Bft) W-NW 292 11,3 C 14,1 C
01.09.2012 09:11 14,2 C 82 % 1024,3 hPa 0,0 l/m 4,0 km/h (1 Bft) N-NW 337 11,2 C 14,2 C
01.09.2012 09:16 14,4 C 81 % 1024,4 hPa 0,0 l/m 0,0 km/h (0 Bft) NW 315 11,2 C 14,4 C
01.09.2012 09:21 14,5 C 81 % 1024,3 hPa 0,0 l/m 5,8 km/h (2 Bft) W-NW 292 11,3 C 14,5 C
01.09.2012 09:26 14,8 C 81 % 1024,3 hPa 0,0 l/m 14,0 km/h (3 Bft) W-NW 292 11,6 C 14,8 C
01.09.2012 09:31 14,9 C 80 % 1024,3 hPa 0,0 l/m 2,5 km/h (1 Bft) W-NW 292 11,5 C 14,9 C
01.09.2012 09:36 14,9 C 80 % 1024,4 hPa 0,0 l/m 2,2 km/h (1 Bft) N 360 11,5 C 14,9 C
01.09.2012 09:41 15,3 C 80 % 1024,4 hPa 0,0 l/m 0,0 km/h (0 Bft) N 360 11,9 C 15,3 C
01.09.2012 09:46 15,4 C 78 % 1024,4 hPa 0,0 l/m 4,0 km/h (1 Bft) W 270 11,6 C 15,4 C
01.09.2012 09:51 15,6 C 78 % 1024,4 hPa 0,0 l/m 5,8 km/h (2 Bft) N-NW 337 11,8 C 15,6 C
01.09.2012 09:56 15,8 C 77 % 1024,4 hPa 0,0 l/m 9,0 km/h (2 Bft) N-NW 337 11,8 C 15,8 C
01.09.2012 10:01 15,8 C 76 % 1024,4 hPa 0,0 l/m 11,9 km/h (2 Bft) N-NW 337 11,6 C 15,8 C
01.09.2012 10:06 15,9 C 76 % 1024,4 hPa 0,0 l/m 1,4 km/h (1 Bft) W-NW 292 11,7 C 15,9 C
01.09.2012 10:11 16,1 C 76 % 1024,4 hPa 0,0 l/m 7,2 km/h (2 Bft) W 270 11,9 C 16,1 C
01.09.2012 10:16 16,4 C 75 % 1024,5 hPa 0,0 l/m 8,3 km/h (2 Bft) NW 315 12,0 C 16,4 C
01.09.2012 10:21 16,5 C 74 % 1024,6 hPa 0,0 l/m 3,2 km/h (1 Bft) NO 45 11,8 C 16,5 C
01.09.2012 10:26 16,6 C 74 % 1024,7 hPa 0,0 l/m 5,0 km/h (1 Bft) N-NO 22 11,9 C 16,6 C
01.09.2012 10:31 16,6 C 74 % 1024,6 hPa 0,0 l/m 11,2 km/h (2 Bft) W-NW 292 11,9 C 16,6 C
01.09.2012 10:36 16,9 C 73 % 1024,7 hPa 0,0 l/m 5,4 km/h (1 Bft) W 270 12,0 C 16,9 C
01.09.2012 10:41 17,1 C 73 % 1024,6 hPa 0,0 l/m 9,4 km/h (2 Bft) N 360 12,2 C 17,1 C
01.09.2012 10:46 16,9 C 72 % 1024,8 hPa 0,0 l/m 5,0 km/h (1 Bft) W-NW 292 11,8 C 16,9 C
01.09.2012 10:51 16,9 C 72 % 1024,9 hPa 0,0 l/m 11,2 km/h (2 Bft) N-NO 22 11,8 C 16,9 C
01.09.2012 10:56 16,9 C 72 % 1024,7 hPa 0,0 l/m 6,5 km/h (2 Bft) NW 315 11,8 C 16,9 C
01.09.2012 11:01 16,9 C 72 % 1024,8 hPa 0,0 l/m 12,2 km/h (2 Bft) N-NW 337 11,8 C 16,9 C
01.09.2012 11:06 17,1 C 72 % 1024,8 hPa 0,0 l/m 19,8 km/h (3 Bft) NW 315 12,0 C 17,1 C
01.09.2012 11:11 17,4 C 71 % 1024,9 hPa 0,0 l/m 4,3 km/h (1 Bft) N 360 12,1 C 17,4 C
01.09.2012 11:16 17,6 C 69 % 1025,0 hPa 0,0 l/m 7,9 km/h (2 Bft) N-NW 337 11,8 C 17,6 C
01.09.2012 11:21 17,4 C 70 % 1025,0 hPa 0,0 l/m 6,8 km/h (2 Bft) N-NO 22 11,9 C 17,4 C
01.09.2012 11:26 17,6 C 70 % 1024,9 hPa 0,0 l/m 11,9 km/h (2 Bft) N-NW 337 12,1 C 17,6 C
01.09.2012 11:31 17,9 C 69 % 1024,8 hPa 0,0 l/m 13,3 km/h (3 Bft) W-SW 247 12,1 C 17,9 C
01.09.2012 11:36 18,3 C 68 % 1025,0 hPa 0,0 l/m 5,8 km/h (2 Bft) N-NW 337 12,3 C 18,3 C
01.09.2012 11:41 18,1 C 66 % 1024,9 hPa 0,0 l/m 8,3 km/h (2 Bft) NW 315 11,6 C 18,1 C
01.09.2012 11:46 18,2 C 67 % 1024,7 hPa 0,0 l/m 7,6 km/h (2 Bft) W 270 12,0 C 18,2 C
01.09.2012 11:51 18,3 C 64 % 1024,8 hPa 0,0 l/m 12,2 km/h (2 Bft) NO 45 11,4 C 18,3 C
01.09.2012 11:56 18,1 C 66 % 1024,7 hPa 0,0 l/m 9,7 km/h (2 Bft) NW 315 11,6 C 18,1 C
01.09.2012 12:01 18,3 C 66 % 1024,8 hPa 0,0 l/m 14,0 km/h (3 Bft) NW 315 11,8 C 18,3 C
01.09.2012 12:06 18,4 C 65 % 1025,1 hPa 0,0 l/m 13,0 km/h (3 Bft) N-NW 337 11,7 C 18,4 C
01.09.2012 12:11 18,4 C 65 % 1025,2 hPa 0,0 l/m 2,5 km/h (1 Bft) W-NW 292 11,7 C 18,4 C
01.09.2012 12:16 18,5 C 65 % 1025,1 hPa 0,0 l/m 9,0 km/h (2 Bft) NW 315 11,8 C 18,5 C
01.09.2012 12:21 18,5 C 64 % 1025,2 hPa 0,0 l/m 6,1 km/h (2 Bft) W-NW 292 11,6 C 18,5 C
01.09.2012 12:26 18,5 C 64 % 1025,1 hPa 0,0 l/m 7,2 km/h (2 Bft) N 360 11,6 C 18,5 C
01.09.2012 12:31 18,3 C 64 % 1025,2 hPa 0,0 l/m 9,4 km/h (2 Bft) W-NW 292 11,4 C 18,3 C
01.09.2012 12:36 18,4 C 64 % 1025,2 hPa 0,0 l/m 6,1 km/h (2 Bft) N-NO 22 11,5 C 18,4 C
01.09.2012 12:41 18,3 C 61 % 1025,2 hPa 0,0 l/m 5,8 km/h (2 Bft) N-NW 337 10,6 C 18,3 C
01.09.2012 12:46 18,1 C 59 % 1025,3 hPa 0,0 l/m 7,2 km/h (2 Bft) N 360 10,0 C 18,1 C
01.09.2012 12:51 18,1 C 59 % 1025,3 hPa 0,0 l/m 5,0 km/h (1 Bft) N-NW 337 10,0 C 18,1 C
01.09.2012 12:56 18,1 C 61 % 1025,4 hPa 0,0 l/m 11,9 km/h (2 Bft) N-NO 22 10,5 C 18,1 C
01.09.2012 13:01 17,9 C 62 % 1025,4 hPa 0,0 l/m 5,4 km/h (1 Bft) N 360 10,5 C 17,9 C
01.09.2012 13:06 17,9 C 62 % 1025,4 hPa 0,0 l/m 0,0 km/h (0 Bft) N 360 10,5 C 17,9 C
01.09.2012 13:11 17,9 C 62 % 1025,4 hPa 0,0 l/m 8,6 km/h (2 Bft) N 360 10,5 C 17,9 C
01.09.2012 13:16 18,0 C 60 % 1025,4 hPa 0,0 l/m 4,3 km/h (1 Bft) N-NO 22 10,1 C 18,0 C
01.09.2012 13:21 17,8 C 61 % 1025,4 hPa 0,0 l/m 7,9 km/h (2 Bft) N 360 10,2 C 17,8 C
01.09.2012 13:26 17,8 C 60 % 1025,4 hPa 0,0 l/m 2,5 km/h (1 Bft) NO 45 9,9 C 17,8 C
01.09.2012 13:31 17,8 C 62 % 1025,5 hPa 0,0 l/m 0,0 km/h (0 Bft) N 360 10,4 C 17,8 C
01.09.2012 13:36 17,8 C 63 % 1025,4 hPa 0,0 l/m 4,7 km/h (1 Bft) N-NO 22 10,7 C 17,8 C
01.09.2012 13:41 17,7 C 62 % 1025,5 hPa 0,0 l/m 2,9 km/h (1 Bft) NW 315 10,3 C 17,7 C
01.09.2012 13:46 17,9 C 63 % 1025,5 hPa 0,0 l/m 4,3 km/h (1 Bft) NW 315 10,8 C 17,9 C
01.09.2012 13:51 18,1 C 63 % 1025,6 hPa 0,0 l/m 5,4 km/h (1 Bft) NW 315 10,9 C 18,1 C
01.09.2012 13:56 18,4 C 62 % 1025,6 hPa 0,0 l/m 5,4 km/h (1 Bft) NW 315 11,0 C 18,4 C
01.09.2012 14:01 18,4 C 61 % 1025,6 hPa 0,0 l/m 1,8 km/h (1 Bft) N-NO 22 10,7 C 18,4 C
01.09.2012 14:06 18,3 C 61 % 1025,7 hPa 0,0 l/m 2,2 km/h (1 Bft) N-NW 337 10,6 C 18,3 C
01.09.2012 14:11 18,2 C 62 % 1025,6 hPa 0,0 l/m 6,1 km/h (2 Bft) N-NW 337 10,8 C 18,2 C
01.09.2012 14:16 18,2 C 61 % 1025,6 hPa 0,0 l/m 1,8 km/h (1 Bft) N-NO 22 10,6 C 18,2 C
01.09.2012 14:21 17,9 C 61 % 1025,5 hPa 0,0 l/m 3,6 km/h (1 Bft) N-NO 22 10,3 C 17,9 C
01.09.2012 14:26 17,8 C 62 % 1025,5 hPa 0,0 l/m 1,8 km/h (1 Bft) N 360 10,4 C 17,8 C
01.09.2012 14:31 17,8 C 63 % 1025,5 hPa 0,0 l/m 9,4 km/h (2 Bft) N 360 10,7 C 17,8 C
01.09.2012 14:36 17,8 C 64 % 1025,4 hPa 0,0 l/m 0,0 km/h (0 Bft) W-NW 292 10,9 C 17,8 C
01.09.2012 14:41 17,9 C 63 % 1025,5 hPa 0,0 l/m 4,0 km/h (1 Bft) NO 45 10,8 C 17,9 C
01.09.2012 14:46 17,9 C 62 % 1025,4 hPa 0,0 l/m 3,6 km/h (1 Bft) N-NO 22 10,5 C 17,9 C
01.09.2012 14:51 18,0 C 62 % 1025,4 hPa 0,0 l/m 4,0 km/h (1 Bft) NW 315 10,6 C 18,0 C
01.09.2012 14:56 18,1 C 61 % 1025,5 hPa 0,0 l/m 2,9 km/h (1 Bft) N-NO 22 10,5 C 18,1 C
01.09.2012 15:01 18,1 C 60 % 1025,5 hPa 0,0 l/m 4,0 km/h (1 Bft) N-NO 22 10,2 C 18,1 C
01.09.2012 15:06 18,1 C 59 % 1025,7 hPa 0,0 l/m 5,0 km/h (1 Bft) N-NO 22 10,0 C 18,1 C
01.09.2012 15:11 18,1 C 60 % 1025,6 hPa 0,0 l/m 4,7 km/h (1 Bft) NO 45 10,2 C 18,1 C
01.09.2012 15:16 18,2 C 58 % 1025,5 hPa 0,0 l/m 11,5 km/h (2 Bft) N-NO 22 9,8 C 18,2 C
01.09.2012 15:21 18,2 C 58 % 1025,5 hPa 0,0 l/m 2,5 km/h (1 Bft) N 360 9,8 C 18,2 C
01.09.2012 15:26 18,5 C 59 % 1025,5 hPa 0,0 l/m 4,0 km/h (1 Bft) NO 45 10,3 C 18,5 C
01.09.2012 15:31 18,7 C 59 % 1025,6 hPa 0,0 l/m 5,8 km/h (2 Bft) W-NW 292 10,5 C 18,7 C
01.09.2012 15:36 18,9 C 59 % 1025,5 hPa 0,0 l/m 3,6 km/h (1 Bft) N-NW 337 10,7 C 18,9 C
01.09.2012 15:41 18,9 C 59 % 1025,5 hPa 0,0 l/m 4,0 km/h (1 Bft) N-NO 22 10,7 C 18,9 C
01.09.2012 15:46 18,9 C 59 % 1025,7 hPa 0,0 l/m 1,4 km/h (1 Bft) NW 315 10,7 C 18,9 C
01.09.2012 15:51 18,8 C 59 % 1025,5 hPa 0,0 l/m 1,4 km/h (1 Bft) O-NO 67 10,6 C 18,8 C
01.09.2012 15:56 18,8 C 60 % 1025,5 hPa 0,0 l/m 5,4 km/h (1 Bft) N 360 10,9 C 18,8 C
01.09.2012 16:01 18,5 C 60 % 1025,6 hPa 0,0 l/m 0,0 km/h (0 Bft) N-NO 22 10,6 C 18,5 C
01.09.2012 16:06 18,6 C 60 % 1025,5 hPa 0,0 l/m 2,9 km/h (1 Bft) N 360 10,7 C 18,6 C
01.09.2012 16:11 18,8 C 60 % 1025,6 hPa 0,0 l/m 0,0 km/h (0 Bft) N 360 10,9 C 18,8 C
01.09.2012 16:16 18,8 C 60 % 1025,5 hPa 0,0 l/m 6,1 km/h (2 Bft) N 360 10,9 C 18,8 C
01.09.2012 16:21 18,9 C 60 % 1025,5 hPa 0,0 l/m 4,0 km/h (1 Bft) NW 315 11,0 C 18,9 C
01.09.2012 16:26 18,9 C 60 % 1025,5 hPa 0,0 l/m 4,7 km/h (1 Bft) N 360 11,0 C 18,9 C
01.09.2012 16:31 18,6 C 60 % 1025,5 hPa 0,0 l/m 9,4 km/h (2 Bft) N 360 10,7 C 18,6 C
01.09.2012 16:36 18,2 C 61 % 1025,5 hPa 0,0 l/m 6,1 km/h (2 Bft) N-NO 22 10,6 C 18,2 C
01.09.2012 16:41 18,1 C 62 % 1025,6 hPa 0,0 l/m 10,1 km/h (2 Bft) NW 315 10,7 C 18,1 C
01.09.2012 16:46 17,9 C 62 % 1025,7 hPa 0,0 l/m 4,3 km/h (1 Bft) N-NO 22 10,5 C 17,9 C
01.09.2012 16:51 17,8 C 62 % 1025,6 hPa 0,0 l/m 3,6 km/h (1 Bft) NO 45 10,4 C 17,8 C
01.09.2012 16:56 17,8 C 63 % 1025,6 hPa 0,0 l/m 3,6 km/h (1 Bft) NO 45 10,7 C 17,8 C
01.09.2012 17:01 17,9 C 63 % 1025,5 hPa 0,0 l/m 5,0 km/h (1 Bft) W 270 10,8 C 17,9 C
01.09.2012 17:06 17,9 C 63 % 1025,5 hPa 0,0 l/m 7,6 km/h (2 Bft) N-NO 22 10,8 C 17,9 C
01.09.2012 17:11 17,9 C 62 % 1025,6 hPa 0,0 l/m 5,8 km/h (2 Bft) N 360 10,5 C 17,9 C
01.09.2012 17:16 17,9 C 63 % 1025,7 hPa 0,0 l/m 7,6 km/h (2 Bft) N-NO 22 10,8 C 17,9 C
01.09.2012 17:21 17,9 C 63 % 1025,7 hPa 0,0 l/m 5,8 km/h (2 Bft) N-NO 22 10,8 C 17,9 C
01.09.2012 17:26 17,8 C 64 % 1025,6 hPa 0,0 l/m 3,2 km/h (1 Bft) N-NO 22 10,9 C 17,8 C
01.09.2012 17:31 17,8 C 63 % 1025,6 hPa 0,0 l/m 14,4 km/h (3 Bft) N-NO 22 10,7 C 17,8 C
01.09.2012 17:36 17,9 C 63 % 1025,6 hPa 0,0 l/m 8,6 km/h (2 Bft) N 360 10,8 C 17,9 C
01.09.2012 17:41 17,9 C 61 % 1025,7 hPa 0,0 l/m 9,0 km/h (2 Bft) N 360 10,3 C 17,9 C
01.09.2012 17:46 17,9 C 61 % 1025,6 hPa 0,0 l/m 5,8 km/h (2 Bft) N-NW 337 10,3 C 17,9 C
01.09.2012 17:51 17,9 C 60 % 1025,6 hPa 0,0 l/m 5,8 km/h (2 Bft) NO 45 10,0 C 17,9 C
01.09.2012 17:56 17,9 C 60 % 1025,7 hPa 0,0 l/m 5,0 km/h (1 Bft) N-NW 337 10,0 C 17,9 C
01.09.2012 18:01 17,8 C 59 % 1025,6 hPa 0,0 l/m 6,1 km/h (2 Bft) N-NO 22 9,7 C 17,8 C
01.09.2012 18:06 17,7 C 60 % 1025,5 hPa 0,0 l/m 1,8 km/h (1 Bft) N-NO 22 9,8 C 17,7 C
01.09.2012 18:11 17,4 C 60 % 1025,6 hPa 0,0 l/m 5,0 km/h (1 Bft) N 360 9,6 C 17,4 C
01.09.2012 18:16 17,3 C 61 % 1025,6 hPa 0,0 l/m 4,3 km/h (1 Bft) N 360 9,7 C 17,3 C
01.09.2012 18:21 17,3 C 62 % 1025,7 hPa 0,0 l/m 5,8 km/h (2 Bft) N-NW 337 9,9 C 17,3 C
01.09.2012 18:26 17,2 C 64 % 1025,7 hPa 0,0 l/m 2,2 km/h (1 Bft) N 360 10,3 C 17,2 C
01.09.2012 18:31 17,1 C 64 % 1025,6 hPa 0,0 l/m 6,5 km/h (2 Bft) N-NW 337 10,2 C 17,1 C
01.09.2012 18:36 17,0 C 65 % 1025,7 hPa 0,0 l/m 0,0 km/h (0 Bft) N-NO 22 10,4 C 17,0 C
01.09.2012 18:41 17,0 C 65 % 1025,7 hPa 0,0 l/m 6,1 km/h (2 Bft) NO 45 10,4 C 17,0 C
01.09.2012 18:46 17,0 C 65 % 1025,8 hPa 0,0 l/m 2,9 km/h (1 Bft) N-NO 22 10,4 C 17,0 C
01.09.2012 18:51 16,9 C 66 % 1025,8 hPa 0,0 l/m 0,0 km/h (0 Bft) N-NO 22 10,5 C 16,9 C
01.09.2012 18:56 16,9 C 66 % 1025,8 hPa 0,0 l/m 2,5 km/h (1 Bft) N-NW 337 10,5 C 16,9 C
01.09.2012 19:01 16,9 C 66 % 1025,8 hPa 0,0 l/m 2,2 km/h (1 Bft) N 360 10,5 C 16,9 C
01.09.2012 19:06 16,9 C 66 % 1025,7 hPa 0,0 l/m 0,0 km/h (0 Bft) N-NO 22 10,5 C 16,9 C
01.09.2012 19:11 16,8 C 66 % 1025,7 hPa 0,0 l/m 0,0 km/h (0 Bft) N-NO 22 10,4 C 16,8 C
01.09.2012 19:16 16,8 C 66 % 1025,6 hPa 0,0 l/m 0,0 km/h (0 Bft) N-NO 22 10,4 C 16,8 C
01.09.2012 19:21 16,8 C 66 % 1025,7 hPa 0,0 l/m 0,0 km/h (0 Bft) N-NO 22 10,4 C 16,8 C
01.09.2012 19:26 17,1 C 66 % 1025,6 hPa 0,0 l/m 0,0 km/h (0 Bft) N-NO 22 10,7 C 17,1 C
01.09.2012 19:31 17,5 C 65 % 1025,5 hPa 0,0 l/m 0,0 km/h (0 Bft) N-NO 22 10,8 C 17,5 C
01.09.2012 19:36 17,4 C 65 % 1025,5 hPa 0,0 l/m 0,0 km/h (0 Bft) N-NO 22 10,8 C 17,4 C
01.09.2012 19:41 17,3 C 64 % 1025,6 hPa 0,0 l/m 0,0 km/h (0 Bft) N-NO 22 10,4 C 17,3 C
01.09.2012 19:46 17,1 C 65 % 1025,6 hPa 0,0 l/m 0,0 km/h (0 Bft) N-NO 22 10,5 C 17,1 C
01.09.2012 19:51 17,0 C 66 % 1025,7 hPa 0,0 l/m 0,0 km/h (0 Bft) N-NO 22 10,6 C 17,0 C
01.09.2012 19:56 16,9 C 66 % 1025,7 hPa 0,0 l/m 0,0 km/h (0 Bft) N-NO 22 10,5 C 16,9 C
01.09.2012 20:01 16,8 C 66 % 1025,7 hPa 0,0 l/m 0,0 km/h (0 Bft) N-NO 22 10,4 C 16,8 C
01.09.2012 20:06 16,6 C 67 % 1025,7 hPa 0,0 l/m 0,0 km/h (0 Bft) N-NO 22 10,4 C 16,6 C
01.09.2012 20:11 16,5 C 67 % 1025,8 hPa 0,0 l/m 0,0 km/h (0 Bft) N-NO 22 10,4 C 16,5 C
01.09.2012 20:16 16,4 C 67 % 1025,9 hPa 0,0 l/m 1,4 km/h (1 Bft) N-NO 22 10,3 C 16,4 C
01.09.2012 20:21 16,3 C 68 % 1025,9 hPa 0,0 l/m 0,0 km/h (0 Bft) N-NO 22 10,4 C 16,3 C
01.09.2012 20:26 16,1 C 69 % 1026,0 hPa 0,0 l/m 2,5 km/h (1 Bft) N-NO 22 10,4 C 16,1 C
01.09.2012 20:31 15,9 C 69 % 1026,0 hPa 0,0 l/m 1,4 km/h (1 Bft) W-NW 292 10,2 C 15,9 C
01.09.2012 20:36 15,8 C 69 % 1026,2 hPa 0,0 l/m 3,2 km/h (1 Bft) NW 315 10,1 C 15,8 C
01.09.2012 20:41 15,6 C 69 % 1026,2 hPa 0,0 l/m 0,0 km/h (0 Bft) NW 315 9,9 C 15,6 C
01.09.2012 20:46 15,5 C 70 % 1026,3 hPa 0,0 l/m 0,0 km/h (0 Bft) N-NW 337 10,1 C 15,5 C
01.09.2012 20:51 15,4 C 70 % 1026,3 hPa 0,0 l/m 2,5 km/h (1 Bft) N 360 10,0 C 15,4 C
01.09.2012 20:56 15,3 C 70 % 1026,3 hPa 0,0 l/m 0,0 km/h (0 Bft) N 360 9,9 C 15,3 C
01.09.2012 21:01 15,1 C 70 % 1026,4 hPa 0,0 l/m 1,4 km/h (1 Bft) N 360 9,7 C 15,1 C
01.09.2012 21:06 14,9 C 71 % 1026,3 hPa 0,0 l/m 0,0 km/h (0 Bft) N 360 9,7 C 14,9 C
01.09.2012 21:11 14,9 C 71 % 1026,4 hPa 0,0 l/m 1,4 km/h (1 Bft) N-NW 337 9,7 C 14,9 C
01.09.2012 21:16 14,9 C 71 % 1026,6 hPa 0,0 l/m 0,0 km/h (0 Bft) N-NW 337 9,7 C 14,9 C
01.09.2012 21:21 14,8 C 72 % 1026,4 hPa 0,0 l/m 0,0 km/h (0 Bft) N-NW 337 9,8 C 14,8 C
01.09.2012 21:26 14,6 C 72 % 1026,3 hPa 0,0 l/m 1,8 km/h (1 Bft) N-NW 337 9,6 C 14,6 C
01.09.2012 21:31 14,6 C 72 % 1026,4 hPa 0,0 l/m 0,0 km/h (0 Bft) N-NW 337 9,6 C 14,6 C
01.09.2012 21:36 14,4 C 73 % 1026,5 hPa 0,0 l/m 0,0 km/h (0 Bft) N-NW 337 9,6 C 14,4 C
01.09.2012 21:41 14,3 C 73 % 1026,4 hPa 0,0 l/m 0,0 km/h (0 Bft) N-NW 337 9,5 C 14,3 C
01.09.2012 21:46 14,2 C 73 % 1026,3 hPa 0,0 l/m 0,0 km/h (0 Bft) N-NW 337 9,4 C 14,2 C
01.09.2012 21:51 14,1 C 74 % 1026,3 hPa 0,0 l/m 0,0 km/h (0 Bft) N-NW 337 9,5 C 14,1 C
01.09.2012 21:56 13,9 C 74 % 1026,5 hPa 0,0 l/m 0,0 km/h (0 Bft) N-NW 337 9,3 C 13,9 C
01.09.2012 22:01 13,8 C 74 % 1026,3 hPa 0,0 l/m 0,0 km/h (0 Bft) N-NW 337 9,2 C 13,8 C
01.09.2012 22:06 13,6 C 74 % 1026,4 hPa 0,0 l/m 0,0 km/h (0 Bft) N-NW 337 9,1 C 13,6 C
01.09.2012 22:11 13,4 C 75 % 1026,5 hPa 0,0 l/m 0,0 km/h (0 Bft) N-NW 337 9,1 C 13,4 C
01.09.2012 22:16 13,3 C 75 % 1026,4 hPa 0,0 l/m 0,0 km/h (0 Bft) N-NW 337 9,0 C 13,3 C
01.09.2012 22:21 13,1 C 75 % 1026,5 hPa 0,0 l/m 0,0 km/h (0 Bft) N-NW 337 8,8 C 13,1 C
01.09.2012 22:26 13,0 C 76 % 1026,6 hPa 0,0 l/m 0,0 km/h (0 Bft) N-NW 337 8,9 C 13,0 C
01.09.2012 22:31 12,9 C 77 % 1026,7 hPa 0,0 l/m 0,0 km/h (0 Bft) N-NW 337 9,0 C 12,9 C
01.09.2012 22:36 12,8 C 77 % 1026,4 hPa 0,0 l/m 0,0 km/h (0 Bft) N-NW 337 8,9 C 12,8 C
01.09.2012 22:41 12,6 C 77 % 1026,4 hPa 0,0 l/m 0,0 km/h (0 Bft) N-NW 337 8,7 C 12,6 C
01.09.2012 22:46 12,5 C 77 % 1026,4 hPa 0,0 l/m 1,4 km/h (1 Bft) N-NW 337 8,6 C 12,5 C
01.09.2012 22:51 12,5 C 79 % 1026,5 hPa 0,0 l/m 0,0 km/h (0 Bft) N 360 9,0 C 12,5 C
01.09.2012 22:56 12,5 C 80 % 1026,5 hPa 0,0 l/m 0,0 km/h (0 Bft) N 360 9,1 C 12,5 C
01.09.2012 23:01 12,5 C 80 % 1026,4 hPa 0,0 l/m 0,0 km/h (0 Bft) NO 45 9,1 C 12,5 C
01.09.2012 23:06 12,5 C 80 % 1026,6 hPa 0,0 l/m 2,5 km/h (1 Bft) SW 225 9,1 C 12,5 C
01.09.2012 23:11 12,4 C 80 % 1026,5 hPa 0,0 l/m 0,0 km/h (0 Bft) SW 225 9,0 C 12,4 C
01.09.2012 23:16 12,4 C 80 % 1026,7 hPa 0,0 l/m 0,0 km/h (0 Bft) W 270 9,0 C 12,4 C
01.09.2012 23:21 12,3 C 80 % 1026,5 hPa 0,0 l/m 0,0 km/h (0 Bft) W 270 8,9 C 12,3 C
01.09.2012 23:26 12,2 C 80 % 1026,6 hPa 0,0 l/m 0,0 km/h (0 Bft) W 270 8,9 C 12,2 C
01.09.2012 23:31 12,1 C 80 % 1026,7 hPa 0,0 l/m 0,0 km/h (0 Bft) W 270 8,8 C 12,1 C
01.09.2012 23:36 11,9 C 80 % 1026,6 hPa 0,0 l/m 0,0 km/h (0 Bft) W 270 8,6 C 11,9 C
01.09.2012 23:41 11,8 C 80 % 1026,7 hPa 0,0 l/m 0,0 km/h (0 Bft) W 270 8,5 C 11,8 C
01.09.2012 23:46 11,8 C 80 % 1026,7 hPa 0,0 l/m 0,0 km/h (0 Bft) W-SW 247 8,5 C 11,8 C
01.09.2012 23:51 11,8 C 81 % 1026,7 hPa 0,0 l/m 2,2 km/h (1 Bft) S 180 8,6 C 11,8 C
01.09.2012 23:56 11,7 C 81 % 1026,6 hPa 0,0 l/m 0,0 km/h (0 Bft) S-SO 157 8,5 C 11,7 C
_ Min-Zeit 06:36 15:16 00:01 - 00:26 - - 06:36 07:01
Minimum _ 9,9 C 58 % 1021,2 hPa - 0,0 km/h (0 Bft) - - 8,0 C 9,2 C
_ Max-Zeit 15:36 06:51 22:31 00:01 11:06 - - 11:36 15:36
Maximum _ 18,9 C 89 % 1026,7 hPa 0,0 l/m 19,8 km/h
NW (3 Bft)
- - 12,3 C 18,9 C
Durchschnitt _ 14,7 C 75 % 1024,5 hPa #0,0 l/m 3,9 km/h (1 Bft) NW - 10,1 C 14,7 C
(c) by David Heller